| time (UTC) | temp F | wind direction | speed knots | gust knots | rain 1hr in | rain 24hr in | rain mn in | humidity % | barometer mb |
| 20260831081539 | 53 | 182 | 0.0 | 0.0 | 0.00 | 0.00 | 0.00 | 88 | 1016.5 |
| 20260831080037 | 54 | 182 | 0.0 | 0.0 | 0.00 | 0.00 | 0.00 | 88 | 1016.6 |
| 20260831074535 | 54 | 182 | 0.0 | 0.9 | 0.00 | 0.00 | 0.00 | 88 | 1016.7 |
| 20260831073031 | 54 | 182 | 0.0 | 0.9 | 0.00 | 0.00 | 0.00 | 87 | 1017.0 |
| 20260831071533 | 54 | 182 | 0.0 | 0.0 | 0.00 | 0.00 | 0.00 | 86 | 1017.0 |
| 20260831070030 | 54 | 182 | 0.0 | 0.9 | 0.00 | 0.00 | 0.00 | 86 | 1017.0 |
| 20260831064528 | 55 | 182 | 0.0 | 0.0 | 0.00 | 0.00 | 0.00 | 86 | 1017.0 |
| 20260831063027 | 55 | 182 | 0.0 | 0.0 | 0.00 | 0.00 | 0.00 | 85 | 1017.2 |
| 20260831061526 | 55 | 182 | 0.0 | 0.9 | 0.00 | 0.00 | 0.00 | 86 | 1017.3 |
| 20260831060026 | 55 | 182 | 0.0 | 0.9 | 0.00 | 0.00 | 0.00 | 85 | 1017.4 |
| 20260831054524 | 56 | 182 | 0.0 | 0.9 | 0.00 | 0.00 | 0.00 | 85 | 1017.5 |
| 20260831053023 | 56 | 182 | 0.0 | 0.9 | 0.00 | 0.00 | 0.00 | 85 | 1017.6 |
| 20260831051524 | 56 | 182 | 0.0 | 0.0 | 0.00 | 0.00 | 0.00 | 85 | 1017.6 |
| 20260831050022 | 57 | 182 | 0.0 | 1.7 | 0.00 | 0.00 | 0.00 | 85 | 1017.8 |
| 20260831044519 | 57 | 182 | 0.0 | 0.9 | 0.00 | 0.00 | 0.00 | 84 | 1017.8 |
| 20260831043018 | 58 | 182 | 0.0 | 0.0 | 0.00 | 0.00 | 0.00 | 83 | 1018.1 |
| 20260831041541 | 59 | 182 | 0.0 | 0.0 | 0.00 | 0.00 | 0.00 | 81 | 1018.1 |
| 20260831040018 | 59 | 182 | 0.0 | 0.9 | 0.00 | 0.00 | 0.00 | 80 | 1018.2 |
| 20260831034517 | 60 | 182 | 0.0 | 0.0 | 0.00 | 0.00 | 0.00 | 78 | 1018.1 |
| 20260831033022 | 61 | 182 | 0.0 | 0.0 | 0.00 | 0.00 | 0.00 | 75 | 1017.9 |
| 20260831031515 | 62 | 182 | 0.0 | 0.0 | 0.00 | 0.00 | 0.00 | 74 | 1017.9 |
| 20260831030016 | 63 | 182 | 0.0 | 0.0 | 0.00 | 0.00 | 0.00 | 72 | 1017.9 |
| 20260831024515 | 63 | 182 | 0.0 | 0.0 | 0.00 | 0.00 | 0.00 | 74 | 1017.9 |
| 20260831023014 | 64 | 182 | 0.0 | 0.0 | 0.00 | 0.00 | 0.00 | 73 | 1018.0 |
| 20260831021519 | 64 | 182 | 0.0 | 1.7 | 0.00 | 0.00 | 0.00 | 72 | 1018.1 |
| 20260831020014 | 64 | 182 | 0.0 | 2.6 | 0.00 | 0.00 | 0.00 | 71 | 1018.1 |
| 20260831014519 | 64 | 213 | 0.0 | 1.7 | 0.00 | 0.00 | 0.00 | 71 | 1018.1 |
| 20260831013010 | 64 | 212 | 0.0 | 2.6 | 0.00 | 0.00 | 0.00 | 69 | 1018.2 |
| 20260831011512 | 64 | 211 | 0.0 | 1.7 | 0.00 | 0.00 | 0.00 | 70 | 1018.3 |
| 20260831010009 | 64 | 160 | 0.0 | 4.3 | 0.00 | 0.00 | 0.00 | 69 | 1018.5 |
| 20260831004508 | 64 | 176 | 0.9 | 7.0 | 0.00 | 0.00 | 0.00 | 68 | 1018.5 |
| 20260831003007 | 64 | 161 | 0.0 | 4.3 | 0.00 | 0.00 | 0.00 | 69 | 1018.6 |
| 20260831001507 | 65 | 155 | 0.0 | 3.5 | 0.00 | 0.00 | 0.00 | 70 | 1018.7 |
| 20260831000006 | 65 | 213 | 0.0 | 2.6 | 0.00 | 0.00 | 0.00 | 70 | 1019.0 |
| 20260830234510 | 65 | 217 | 0.0 | 4.3 | 0.00 | 0.00 | 0.00 | 68 | 1019.1 |
| 20260830233014 | 65 | 198 | 0.0 | 1.7 | 0.00 | 0.00 | 0.00 | 68 | 1019.1 |
| 20260830231504 | 65 | 188 | 0.9 | 4.3 | 0.00 | 0.00 | 0.00 | 67 | 1019.3 |
| 20260830230007 | 65 | 186 | 2.6 | 5.2 | 0.00 | 0.00 | 0.00 | 67 | 1019.1 |
| 20260830224503 | 65 | 191 | 1.7 | 4.3 | 0.00 | 0.00 | 0.00 | 69 | 1019.3 |
| 20260830223002 | 65 | 185 | 2.6 | 6.1 | 0.00 | 0.00 | 0.00 | 70 | 1019.4 |
| 20260830221506 | 65 | 166 | 1.7 | 7.0 | 0.00 | 0.00 | 0.00 | 70 | 1019.4 |
| 20260830220002 | 65 | 160 | 0.9 | 7.0 | 0.00 | 0.00 | 0.00 | 69 | 1019.6 |
| 20260830214601 | 66 | 188 | 1.7 | 7.0 | 0.00 | 0.00 | 0.00 | 68 | 1019.6 |
| 20260830214500 | 66 | 167 | 1.7 | 7.0 | 0.00 | 0.00 | 0.00 | 69 | 1019.6 |
| 20260830213058 | 66 | 193 | 2.6 | 7.0 | 0.00 | 0.00 | 0.00 | 66 | 1019.7 |
| 20260830211601 | 65 | 184 | 2.6 | 7.0 | 0.00 | 0.00 | 0.00 | 70 | 1019.9 |
| 20260830210057 | 65 | 165 | 2.6 | 6.1 | 0.00 | 0.00 | 0.00 | 69 | 1019.8 |
| 20260830204554 | 65 | 186 | 0.9 | 6.1 | 0.00 | 0.00 | 0.00 | 71 | 1019.7 |
| 20260830203053 | 64 | 194 | 1.7 | 6.1 | 0.00 | 0.00 | 0.00 | 72 | 1019.7 |
| 20260830201552 | 63 | 187 | 1.7 | 7.8 | 0.00 | 0.00 | 0.00 | 72 | 1019.9 |
| 20260830200052 | 64 | 182 | 2.6 | 11.3 | 0.00 | 0.00 | 0.00 | 72 | 1019.8 |
| 20260830194603 | 65 | 184 | 1.7 | 6.1 | 0.00 | 0.01 | 0.00 | 71 | 1019.8 |
| 20260830193101 | 65 | 190 | 1.7 | 8.7 | 0.00 | 0.01 | 0.00 | 70 | 1019.8 |
| 20260830191546 | 63 | 159 | 2.6 | 7.0 | 0.00 | 0.01 | 0.00 | 73 | 1019.9 |
| 20260830190045 | 63 | 191 | 2.6 | 8.7 | 0.00 | 0.01 | 0.00 | 73 | 1020.0 |
| 20260830184643 | 62 | 171 | 1.7 | 7.0 | 0.00 | 0.01 | 0.00 | 74 | 1020.0 |
| 20260830183045 | 62 | 178 | 4.3 | 9.6 | 0.00 | 0.01 | 0.00 | 73 | 1020.1 |
| 20260830181539 | 62 | 158 | 2.6 | 9.6 | 0.00 | 0.01 | 0.00 | 75 | 1020.2 |
| 20260830180034 | 61 | 199 | 1.7 | 8.7 | 0.00 | 0.01 | 0.00 | 77 | 1020.0 |
| 20260830174538 | 60 | 189 | 4.3 | 8.7 | 0.00 | 0.01 | 0.00 | 77 | 1020.0 |
| 20260830173033 | 61 | 144 | 2.6 | 8.7 | 0.00 | 0.01 | 0.00 | 76 | 1020.0 |
| 20260830171535 | 60 | 309 | 1.7 | 9.6 | 0.00 | 0.01 | 0.00 | 77 | 1019.9 |
| 20260830170029 | 60 | 169 | 2.6 | 7.8 | 0.00 | 0.01 | 0.00 | 77 | 1019.8 |
| 20260830164530 | 60 | 169 | 2.6 | 10.4 | 0.00 | 0.01 | 0.00 | 78 | 1019.9 |
| 20260830163027 | 59 | 184 | 2.6 | 6.1 | 0.00 | 0.01 | 0.00 | 80 | 1019.9 |
| 20260830161522 | 59 | 208 | 2.6 | 7.0 | 0.00 | 0.01 | 0.00 | 80 | 1019.9 |
| 20260830160020 | 59 | 154 | 2.6 | 5.2 | 0.00 | 0.01 | 0.00 | 79 | 1019.9 |
| 20260830154520 | 59 | 174 | 1.7 | 7.0 | 0.00 | 0.01 | 0.00 | 81 | 1019.8 |
| 20260830153017 | 58 | 180 | 2.6 | 6.1 | 0.00 | 0.01 | 0.00 | 80 | 1019.7 |
| 20260830151516 | 58 | 200 | 0.9 | 4.3 | 0.00 | 0.01 | 0.00 | 82 | 1019.6 |
| 20260830150014 | 58 | 179 | 2.6 | 9.6 | 0.00 | 0.01 | 0.00 | 83 | 1019.6 |
| 20260830144514 | 58 | 190 | 1.7 | 7.8 | 0.00 | 0.01 | 0.00 | 82 | 1019.4 |
| 20260830143015 | 58 | 175 | 1.7 | 7.0 | 0.00 | 0.01 | 0.00 | 82 | 1019.5 |
| 20260830141507 | 58 | 192 | 4.3 | 9.6 | 0.00 | 0.01 | 0.00 | 82 | 1019.3 |
| 20260830140008 | 57 | 159 | 0.9 | 7.0 | 0.00 | 0.01 | 0.00 | 82 | 1019.1 |
| 20260830134509 | 57 | 186 | 0.9 | 7.0 | 0.00 | 0.01 | 0.00 | 83 | 1019.0 |
| 20260830133000 | 56 | 197 | 0.9 | 4.3 | 0.00 | 0.01 | 0.00 | 83 | 1018.9 |
| 20260830131600 | 56 | 200 | 1.7 | 7.0 | 0.00 | 0.01 | 0.00 | 83 | 1018.9 |
| 20260830130113 | 55 | 185 | 0.9 | 7.0 | 0.00 | 0.01 | 0.00 | 83 | 1018.9 |
| 20260830124600 | 55 | 196 | 0.9 | 3.5 | 0.00 | 0.02 | 0.00 | 84 | 1018.8 |
| 20260830123100 | 55 | 158 | 0.0 | 3.5 | 0.00 | 0.02 | 0.00 | 83 | 1018.9 |
| 20260830121602 | 55 | 180 | 0.0 | 0.0 | 0.00 | 0.02 | 0.00 | 82 | 1019.0 |
| 20260830120100 | 55 | 180 | 0.0 | 2.6 | 0.00 | 0.02 | 0.00 | 82 | 1019.0 |
| 20260830114600 | 55 | 159 | 0.0 | 0.9 | 0.00 | 0.06 | 0.00 | 81 | 1019.1 |
| 20260830113052 | 56 | 193 | 0.0 | 3.5 | 0.00 | 0.06 | 0.00 | 80 | 1019.1 |
| 20260830111549 | 57 | 148 | 0.0 | 1.7 | 0.00 | 0.06 | 0.00 | 79 | 1019.0 |
| 20260830110057 | 57 | 137 | 0.0 | 2.6 | 0.00 | 0.06 | 0.00 | 78 | 1018.9 |
| 20260830104547 | 57 | 183 | 0.0 | 4.3 | 0.00 | 0.07 | 0.00 | 78 | 1018.9 |
| 20260830103044 | 57 | 242 | 0.9 | 3.5 | 0.00 | 0.07 | 0.00 | 78 | 1018.8 |
| 20260830101544 | 58 | 185 | 0.0 | 1.7 | 0.00 | 0.07 | 0.00 | 78 | 1018.7 |
| 20260830100050 | 58 | 175 | 0.0 | 7.0 | 0.00 | 0.07 | 0.00 | 77 | 1018.6 |
| 20260830094540 | 58 | 166 | 0.0 | 6.1 | 0.00 | 0.08 | 0.00 | 77 | 1018.6 |
| 20260830093039 | 58 | 163 | 2.6 | 5.2 | 0.00 | 0.08 | 0.00 | 77 | 1018.6 |
| 20260830091541 | 58 | 168 | 0.9 | 3.5 | 0.00 | 0.08 | 0.00 | 77 | 1018.7 |
| 20260830090039 | 58 | 169 | 0.9 | 4.3 | 0.00 | 0.08 | 0.00 | 77 | 1018.7 |
| 20260830084611 | 58 | 146 | 0.9 | 5.2 | 0.00 | 0.09 | 0.00 | 77 | 1018.7 |
| 20260830083037 | 58 | 191 | 0.0 | 4.3 | 0.00 | 0.09 | 0.00 | 77 | 1018.6 |